Flag for Oman Weather past 2 weeks in Salalah, Oman

Now
79 °F

Warm.


Feels Like: 80 °F
Forecast: 64 / 83 °F
Wind: 12 mph from South

Location: Salalah Airport

Current Time: Mar 2, 2015 at 5:16:09 PM

Latest Report: Mar 2, 2015 at 3:50 PM


Visibility: N/A

Pressure: 29.92 "Hg

Humidity: 54%

Dew point: 61 °F

Location of SalalahLocation

Historic Weather in Salalah — Graph

°F

Salalah temperature yesterday

Maximum temperature yesterday: 86 °F (at 3:50 PM)
Minimum temperature yesterday: 68 °F (at 6:50 AM)
Average temperature yesterday: 75 °F

Past Weeks' High & Low Weather Summary

 TemperatureHumidityPressure
High86 °F (Feb 23, 2:50 PM)83% (Feb 20, 6:50 AM)30.09 "Hg (Feb 20, 6:50 AM)
Low64 °F (Feb 18, 6:50 AM)8% (Feb 25, 12:50 PM)29.83 "Hg (Feb 19, 2:50 PM)
Average75 °F48%29.95 "Hg
* Reported Feb 15 3:50 PM — Mar 2 3:50 PM, Salalah, Weather by CustomWeather, © 2015

Note: Actual official high and low records may vary slightly from our data, if they occured in-between our weather recording intervals... More about our weather records

Advertising

Salalah weather history for previous 24 hours

 ConditionsComfort  
Time TempWeatherWind HumidityBarometerVisibility
3:50 PM
Mon, Mar 2
79 °FWarm.12 mph54%29.92 "HgN/A
2:50 PM79 °FWarm.13 mph54%29.92 "HgN/A
1:50 PM79 °FWarm.12 mph51%29.95 "HgN/A
12:50 PM79 °FPassing clouds.10 mph51%29.98 "HgN/A
11:50 AM79 °FWarm.10 mph51%30.01 "HgN/A
10:50 AM77 °FWarm.8 mph54%30.01 "HgN/A
9:50 AM77 °FSunny.1 mph47%30.01 "Hg10 mi
8:50 AM73 °FMild.3 mph38%30.01 "HgN/A
7:50 AM68 °FSunny.5 mph43%29.98 "Hg10 mi
6:50 AM64 °FMild.6 mph46%29.95 "HgN/A
5:50 AM66 °FMild.3 mph37%29.92 "HgN/A
3:50 AM64 °FMild.3 mph49%29.92 "HgN/A
2:50 AM68 °FMild.3 mph43%29.89 "HgN/A
1:50 AM68 °FMild.2 mph46%29.92 "HgN/A
12:50 AM68 °FMild.2 mph53%29.92 "HgN/A
11:50 PM
Sun, Mar 1
70 °FMild.3 mph50%29.95 "HgN/A
10:50 PM72 °FMild.No wind50%29.95 "HgN/A
9:50 PM73 °FMild.5 mph47%29.95 "HgN/A
8:50 PM73 °FMild.3 mph47%29.95 "HgN/A
7:50 PM75 °FMild.6 mph47%29.95 "HgN/A
6:50 PM75 °FMild.6 mph44%29.92 "HgN/A
5:50 PM77 °FPleasantly warm.12 mph39%29.89 "HgN/A
Weather by CustomWeather, © 2015

See weather overviewHow to use our weather pages